IRIDIUM 33 DEB

Satellite information

Favourite Embed

Satellite Type and Status

DEBRISIN ORBIT

Key statistics

Satellite IRIDIUM 33 DEB at a glance.

Uptime

10317

Days in orbit

Revolutions

≈ 14.5

Per day

Orbit

LEO

Low Earth Orbit

Inclination

86.3

Latest

Satellite identification and parameters

Extended collection of information and parameters for IRIDIUM 33 DEB.

Object identification

Identified? True

Debris? True

Object name: IRIDIUM 33 DEB

International designator: 1997-051YD

Object number (NORAD): 38017

Object ID (CCSDS): 38017

Country: UNITED STATES OF AMERICA (US)

Current information (Y/N): Y

RCS size: SMALL

Orbital parameters

Period: 99.393 minutes

Inclination: 86.3421 deg

SMA: 7107.711 km

Apoapsis: 795.21 km

Periapsis: 663.942 km

RAAN: 167.6378 deg

Eccentricy: 0.0092342

Argument of periapsis: 113.8595 deg

Mean anomaly: 247.2321 deg

Mean motion: 14.48798991 rev/day

Mean motion (dot): 0.00027013 rev/day2

B* drag term: 0.0067532519 1/REarth

Two-line elements (TLE)

Creation date: Dec. 12, 2025, 10:14 a.m.

Reference frame: TEME

Reference center: EARTH

Epoch: Dec. 9, 2025, 11:46 a.m. UTC

TLE line 0: 0 IRIDIUM 33 DEB

TLE line 1: 1 38017U 97051YD 25343.49067071 .00027013 00000-0 67533-2 0 9991

TLE line 2: 2 38017 86.3421 167.6378 0092342 113.8595 247.2321 14.48798991613556

Live tracking on map

Real-time ground track for satellite IRIDIUM 33 DEB.

In-orbit conjunctions

A list of the most updated potential collisions computed for object IRIDIUM 33 DEB.

Target Orbit TCA Probability of collision Miss distance Type
CZ-2D R/B SSO 2025-02-28 15:47:30 0.0001325091 575.0 (m) ROCKET BODY
THORAD AGENA D DEB LEO 2024-11-15 01:35:05 0.0001458506 656.0 (m) DEBRIS
NOAA 16 DEB SSO 2024-11-09 15:47:09 0.0003637075 183.0 (m) DEBRIS

Associated space launch

Iridium provides global mobile telecommunications services using a constellation of 66 low earth orbit satellites in a 86.4° inclined orbit. Although 77 satellites were originally envisioned for the system and spawned the name based on the 77th element in the periodic table, the system has been scaled back. Motorola's Satellite Communications Group designed and manufactured the Iridium satellites with Lockheed Martin providing the LM-700A spacecraft buses.

IRIDIUM 33 DEB was lifted into orbit during the mission ‘Proton-K/17S40 | Iridium 27 to 33’, on board a Proton-K/17S40 space rocket.

The launch took place on Sept. 14, 1997, 1:36 a.m. from 81/23 (81L).

For more information about the launch, click the button.

Launch to space Proton-K/17S40 | Iridium 27 to 33
Proton-K/17S40 | Iridium 27 to 33

Agency: N/A

Status: Launch Successful

Launch date: Sept. 14, 1997, 1:36 a.m. UTC

Rocket: Proton-K/17S40

Launch pad: 81/23 (81L)

Location: Baikonur Cosmodrome, Republic of Kazakhstan

...

Latest news about this satellite

There are no fresh news available about this satellite. Check back as we update our databases every day.


Newsletter sign-up

Weekly statistics, charts and insights to help you stay on top of the space industry.